Location: Observatoire
(46.1952°N, 5.3391°E)
Time: 01:47:04
(UTC+02:00)

ITUPSAT 1 - Visible Passes

Search period start: 19 April 2024 00:00
Search period end: 29 April 2024 00:00
Orbit: 695 x 707 km, 98.5° (Epoch: 18 April)

Date Brightness Start Highest point End Pass type
(mag) Time Alt. Az. Time Alt. Az. Time Alt. Az.
19 Apr ? 01:11:46 10° NNW 01:14:57 18° WNW 01:15:25 18° WNW visible
19 Apr ? 22:38:40 10° NE 22:40:37 17° ENE 22:40:37 17° ENE visible
20 Apr ? 00:15:24 10° N 00:19:29 50° NW 00:19:29 50° NW visible
20 Apr ? 23:20:04 10° NNE 23:23:32 39° ENE 23:23:32 39° ENE visible
21 Apr ? 00:58:19 10° N 01:02:02 23° WNW 01:02:24 23° WNW visible
21 Apr ? 22:26:17 10° ENE 22:27:36 13° ENE 22:27:36 13° ENE visible
22 Apr ? 00:02:15 10° N 00:06:27 64° NNW 00:06:27 64° NNW visible
22 Apr ? 01:42:55 10° NW 01:43:47 10° NW 01:44:40 10° WNW visible
22 Apr ? 23:07:09 10° NNE 23:10:30 31° ENE 23:10:30 31° ENE visible
23 Apr ? 00:44:58 10° N 00:49:04 30° WNW 00:49:22 30° WNW visible
23 Apr ? 23:49:08 10° NNE 23:53:24 72° NNE 23:53:24 72° NNE visible
24 Apr ? 01:28:35 10° NNW 01:30:54 14° WNW 01:32:16 12° WNW visible
24 Apr ? 22:54:18 10° NE 22:57:27 25° ENE 22:57:27 25° ENE visible
25 Apr ? 00:31:40 10° N 00:36:04 39° WNW 00:36:18 38° WNW visible
25 Apr ? 23:36:02 10° NNE 23:40:20 61° ENE 23:40:20 61° ENE visible
26 Apr ? 01:14:52 10° NNW 01:17:57 18° WNW 01:19:11 16° W visible
26 Apr ? 22:41:35 10° NE 22:44:21 19° E 22:44:21 19° E visible
27 Apr ? 00:18:24 10° N 00:23:00 51° WNW 00:23:13 51° W visible
27 Apr ? 23:23:00 10° NNE 23:27:14 47° E 23:27:14 47° E visible
28 Apr ? 01:01:20 10° NNW 01:04:58 22° WNW 01:06:05 21° W visible
28 Apr ? 22:29:04 10° NE 22:31:15 15° E 22:31:15 15° E visible
